BEE57G EGHI-EGCC

Flight info

Callsign BEE57G
Flight time 0h 41m
Altitude 20000
Route NORRY Q41 SILVA M605 DTY Y250 AKUPA T420 ELVOS
Aircraft DH8D/M-SDE2E3FGRY/H

Departure

Time 2026-05-05 07:44
Airport Southampton Airport (EGHI)

Arrival

Time 2026-05-05 08:25
Airport Manchester Airport (EGCC)
Time Latitude Longitude Altitude Speed Heading
2026-05-05 07:27 50.94966 -1.36109 50 ft 0 kts 19°
2026-05-05 07:33 50.94967 -1.36109 50 ft 0 kts 19°
2026-05-05 07:33 50.94964 -1.36111 50 ft 2 kts 19°
2026-05-05 07:34 50.94950 -1.36119 50 ft 2 kts 29°
2026-05-05 07:34 50.94938 -1.36133 50 ft 2 kts 48°
2026-05-05 07:34 50.94930 -1.36152 50 ft 2 kts 66°
2026-05-05 07:34 50.94926 -1.36175 50 ft 2 kts 84°
2026-05-05 07:35 50.94926 -1.36198 50 ft 2 kts 103°
2026-05-05 07:35 50.94928 -1.36209 50 ft 0 kts 109°
2026-05-05 07:39 50.94915 -1.36145 50 ft 14 kts 109°
2026-05-05 07:39 50.94875 -1.36032 50 ft 10 kts 165°
2026-05-05 07:39 50.94806 -1.36059 50 ft 10 kts 199°
2026-05-05 07:39 50.94743 -1.36094 50 ft 9 kts 199°
2026-05-05 07:40 50.94682 -1.36126 50 ft 8 kts 196°
2026-05-05 07:40 50.94627 -1.36133 50 ft 4 kts 165°
2026-05-05 07:40 50.94626 -1.36133 50 ft 4 kts 164°
2026-05-05 07:40 50.94613 -1.36124 50 ft 1 kts 152°
2026-05-05 07:41 50.94595 -1.36100 50 ft 4 kts 129°
2026-05-05 07:41 50.94569 -1.36004 50 ft 11 kts 108°
2026-05-05 07:41 50.94506 -1.35968 50 ft 13 kts 199°
2026-05-05 07:41 50.94407 -1.36023 50 ft 15 kts 200°
2026-05-05 07:42 50.94316 -1.36043 50 ft 6 kts 197°
2026-05-05 07:42 50.94312 -1.36075 50 ft 2 kts 332°
2026-05-05 07:42 50.94327 -1.36069 50 ft 1 kts 21°
2026-05-05 07:42 50.94330 -1.36068 50 ft 0 kts 20°
2026-05-05 07:43 50.94362 -1.36049 50 ft 22 kts 20°
2026-05-05 07:43 50.94804 -1.35805 50 ft 107 kts 19°
2026-05-05 07:43 50.95695 -1.35305 83 ft 155 kts 19°
2026-05-05 07:44 50.96694 -1.34716 690 ft 156 kts 19°
2026-05-05 07:44 50.97744 -1.34195 1284 ft 164 kts 14°
2026-05-05 07:44 50.98862 -1.33672 1917 ft 171 kts 17°
2026-05-05 07:44 51.00033 -1.33180 2379 ft 190 kts 15°
2026-05-05 07:45 51.01387 -1.32641 2680 ft 206 kts 15°
2026-05-05 07:45 51.02800 -1.32071 3161 ft 210 kts 15°
2026-05-05 07:45 51.04208 -1.31494 3657 ft 213 kts 15°
2026-05-05 07:45 51.05654 -1.30891 4140 ft 217 kts 15°
2026-05-05 07:46 51.07118 -1.30273 4670 ft 219 kts 15°
2026-05-05 07:46 51.08590 -1.29644 5177 ft 221 kts 15°
2026-05-05 07:46 51.10081 -1.29003 5676 ft 224 kts 15°
2026-05-05 07:46 51.11590 -1.28350 6202 ft 226 kts 15°
2026-05-05 07:47 51.13102 -1.27693 6690 ft 229 kts 15°
2026-05-05 07:47 51.14647 -1.27019 7200 ft 232 kts 15°
2026-05-05 07:47 51.16214 -1.26334 7682 ft 235 kts 15°
2026-05-05 07:47 51.17785 -1.25646 8193 ft 237 kts 15°
2026-05-05 07:48 51.19362 -1.24954 8690 ft 239 kts 15°
2026-05-05 07:48 51.20966 -1.24249 9192 ft 241 kts 15°
2026-05-05 07:48 51.22603 -1.23528 9668 ft 244 kts 15°
2026-05-05 07:48 51.24227 -1.22812 10154 ft 247 kts 15°
2026-05-05 07:49 51.25886 -1.22074 10665 ft 248 kts 16°
2026-05-05 07:49 51.27553 -1.21319 11141 ft 251 kts 15°
2026-05-05 07:49 51.29237 -1.20577 11615 ft 254 kts 15°
2026-05-05 07:49 51.30933 -1.19833 12148 ft 255 kts 15°
2026-05-05 07:50 51.32643 -1.19080 12633 ft 257 kts 15°
2026-05-05 07:50 51.34365 -1.18320 13099 ft 259 kts 15°
2026-05-05 07:50 51.36107 -1.17551 13556 ft 261 kts 15°
2026-05-05 07:50 51.37861 -1.16774 14005 ft 263 kts 15°
2026-05-05 07:51 51.39635 -1.15988 14414 ft 267 kts 15°
2026-05-05 07:51 51.41406 -1.15202 14825 ft 269 kts 15°
2026-05-05 07:51 51.43227 -1.14393 15241 ft 271 kts 15°
2026-05-05 07:51 51.45047 -1.13583 15620 ft 274 kts 15°
2026-05-05 07:52 51.46873 -1.12770 15999 ft 277 kts 15°
2026-05-05 07:52 51.48378 -1.12100 16329 ft 278 kts 15°
2026-05-05 07:53 51.49783 -1.11490 16560 ft 281 kts 15°
2026-05-05 07:53 51.51669 -1.10686 16906 ft 283 kts 15°
2026-05-05 07:53 51.53582 -1.09868 17264 ft 285 kts 15°
2026-05-05 07:53 51.55505 -1.09047 17588 ft 288 kts 15°
2026-05-05 07:54 51.57436 -1.08221 17910 ft 290 kts 15°
2026-05-05 07:54 51.59399 -1.07380 18234 ft 292 kts 15°
2026-05-05 07:54 51.61347 -1.06557 18541 ft 294 kts 14°
2026-05-05 07:54 51.63372 -1.05941 18870 ft 296 kts
2026-05-05 07:55 51.65393 -1.05431 19183 ft 297 kts
2026-05-05 07:55 51.67450 -1.04914 19480 ft 299 kts
2026-05-05 07:55 51.69488 -1.04401 19754 ft 300 kts
2026-05-05 07:55 51.71565 -1.03873 19930 ft 305 kts
2026-05-05 07:56 51.73689 -1.03332 19979 ft 315 kts
2026-05-05 07:56 51.75904 -1.02761 19989 ft 326 kts
2026-05-05 07:56 51.78155 -1.02181 19987 ft 334 kts
2026-05-05 07:56 51.80480 -1.01583 19986 ft 341 kts
2026-05-05 07:57 51.82841 -1.00975 19981 ft 347 kts
2026-05-05 07:57 51.85224 -1.00672 19957 ft 349 kts 355°
2026-05-05 07:57 51.87619 -1.01320 19981 ft 350 kts 348°
2026-05-05 07:57 51.90018 -1.02114 19987 ft 352 kts 348°
2026-05-05 07:58 51.92420 -1.02912 19994 ft 353 kts 348°
2026-05-05 07:58 51.94802 -1.03702 19996 ft 354 kts 348°
2026-05-05 07:58 51.97216 -1.04499 19994 ft 355 kts 348°
2026-05-05 07:58 51.99647 -1.05300 19983 ft 356 kts 348°
2026-05-05 07:59 52.02064 -1.06095 19988 ft 356 kts 348°
2026-05-05 07:59 52.04494 -1.06892 19989 ft 357 kts 348°
2026-05-05 07:59 52.06924 -1.07689 19984 ft 356 kts 348°
2026-05-05 07:59 52.09290 -1.08469 19967 ft 338 kts 347°
2026-05-05 08:00 52.11576 -1.09225 19984 ft 335 kts 348°
2026-05-05 08:00 52.13888 -1.09983 19986 ft 334 kts 348°
2026-05-05 08:00 52.16157 -1.10727 19984 ft 334 kts 348°
2026-05-05 08:00 52.18431 -1.11305 19975 ft 334 kts 356°
2026-05-05 08:01 52.20744 -1.11234 19988 ft 334 kts
2026-05-05 08:01 52.23063 -1.11046 19987 ft 334 kts
2026-05-05 08:01 52.25386 -1.10855 19984 ft 334 kts
2026-05-05 08:01 52.27688 -1.10669 19987 ft 334 kts
2026-05-05 08:02 52.30031 -1.10484 19984 ft 334 kts
2026-05-05 08:02 52.32333 -1.10305 19983 ft 334 kts
2026-05-05 08:02 52.34643 -1.10128 19982 ft 334 kts
2026-05-05 08:02 52.36958 -1.09952 19981 ft 334 kts
2026-05-05 08:03 52.39268 -1.09777 19982 ft 334 kts
2026-05-05 08:03 52.41605 -1.09601 19985 ft 334 kts
2026-05-05 08:03 52.43927 -1.09427 19984 ft 335 kts
2026-05-05 08:03 52.46238 -1.09253 19982 ft 335 kts
2026-05-05 08:04 52.48553 -1.09456 19955 ft 331 kts 344°
2026-05-05 08:04 52.50593 -1.11005 20004 ft 326 kts 327°
2026-05-05 08:04 52.52535 -1.12937 19993 ft 326 kts 326°
2026-05-05 08:04 52.54469 -1.14886 19990 ft 327 kts 326°
2026-05-05 08:05 52.56403 -1.16841 19988 ft 327 kts 326°
2026-05-05 08:05 52.58345 -1.18806 19990 ft 327 kts 326°
2026-05-05 08:05 52.60290 -1.20773 19986 ft 328 kts 326°
2026-05-05 08:05 52.62203 -1.22708 19990 ft 328 kts 326°
2026-05-05 08:06 52.64158 -1.24689 19993 ft 328 kts 326°
2026-05-05 08:06 52.66102 -1.26659 19993 ft 328 kts 326°
2026-05-05 08:06 52.68034 -1.28618 19993 ft 328 kts 326°
2026-05-05 08:06 52.69982 -1.30596 19990 ft 328 kts 326°
2026-05-05 08:07 52.71925 -1.32571 19992 ft 328 kts 326°
2026-05-05 08:07 52.73869 -1.34552 19913 ft 330 kts 326°
2026-05-05 08:07 52.75788 -1.36514 19446 ft 322 kts 325°
2026-05-05 08:07 52.77651 -1.38427 18978 ft 312 kts 325°
2026-05-05 08:08 52.79477 -1.40298 18527 ft 304 kts 325°
2026-05-05 08:08 52.81239 -1.42105 18091 ft 301 kts 325°
2026-05-05 08:08 52.83054 -1.43959 17685 ft 315 kts 326°
2026-05-05 08:08 52.84951 -1.45896 17274 ft 325 kts 326°
2026-05-05 08:09 52.86901 -1.47891 16860 ft 334 kts 326°
2026-05-05 08:09 52.88869 -1.49907 16441 ft 339 kts 326°
2026-05-05 08:09 52.90895 -1.51985 16029 ft 343 kts 326°
2026-05-05 08:09 52.92925 -1.54071 15608 ft 346 kts 327°
2026-05-05 08:10 52.94963 -1.56167 15189 ft 347 kts 327°
2026-05-05 08:10 52.96980 -1.58246 14753 ft 337 kts 327°
2026-05-05 08:10 52.98917 -1.60256 14307 ft 321 kts 327°
2026-05-05 08:10 53.00753 -1.62161 13863 ft 308 kts 327°
2026-05-05 08:11 53.02525 -1.64002 13428 ft 296 kts 327°
2026-05-05 08:11 53.04252 -1.65796 12988 ft 286 kts 326°
2026-05-05 08:11 53.05795 -1.67719 12547 ft 276 kts 314°
2026-05-05 08:11 53.07050 -1.70058 12120 ft 268 kts 309°
2026-05-05 08:12 53.08241 -1.72390 11685 ft 261 kts 309°
2026-05-05 08:12 53.09399 -1.74663 11252 ft 255 kts 310°
2026-05-05 08:12 53.10543 -1.76904 10816 ft 250 kts 310°
2026-05-05 08:12 53.11648 -1.79066 10390 ft 245 kts 310°
2026-05-05 08:13 53.12741 -1.81204 9959 ft 241 kts 310°
2026-05-05 08:13 53.13821 -1.83312 9531 ft 237 kts 310°
2026-05-05 08:13 53.14878 -1.85376 9122 ft 232 kts 310°
2026-05-05 08:13 53.15856 -1.87403 8838 ft 221 kts 308°
2026-05-05 08:14 53.16817 -1.89326 8563 ft 210 kts 311°
2026-05-05 08:14 53.17755 -1.91122 8286 ft 199 kts 311°
2026-05-05 08:14 53.18625 -1.92795 8082 ft 183 kts 311°
2026-05-05 08:14 53.19471 -1.94403 8036 ft 189 kts 312°
2026-05-05 08:15 53.20353 -1.96080 8012 ft 196 kts 311°
2026-05-05 08:15 53.21267 -1.97839 8001 ft 203 kts 311°
2026-05-05 08:15 53.22206 -1.99656 7995 ft 210 kts 311°
2026-05-05 08:15 53.23209 -2.01482 7984 ft 215 kts 321°
2026-05-05 08:16 53.24578 -2.02442 7981 ft 218 kts 354°
2026-05-05 08:16 53.26060 -2.02022 7993 ft 223 kts 19°
2026-05-05 08:16 53.27530 -2.01011 7986 ft 229 kts 21°
2026-05-05 08:16 53.29041 -1.99958 7726 ft 247 kts 21°
2026-05-05 08:17 53.30650 -1.98844 7301 ft 252 kts 21°
2026-05-05 08:17 53.32274 -1.97745 6838 ft 248 kts 21°
2026-05-05 08:17 53.33856 -1.96683 6380 ft 244 kts 21°
2026-05-05 08:17 53.35420 -1.95639 5922 ft 241 kts 21°
2026-05-05 08:18 53.36945 -1.94619 5469 ft 238 kts 20°
2026-05-05 08:18 53.38472 -1.93594 5120 ft 229 kts 20°
2026-05-05 08:18 53.39904 -1.92623 4802 ft 222 kts 20°
2026-05-05 08:18 53.41352 -1.91633 4496 ft 222 kts 21°
2026-05-05 08:19 53.42772 -1.90664 4194 ft 221 kts 20°
2026-05-05 08:19 53.44231 -1.90007 3877 ft 217 kts
2026-05-05 08:19 53.45648 -1.90692 3680 ft 214 kts 328°
2026-05-05 08:19 53.46809 -1.92263 3556 ft 214 kts 321°
2026-05-05 08:20 53.47923 -1.93867 3505 ft 211 kts 320°
2026-05-05 08:20 53.48793 -1.95818 3476 ft 208 kts 292°
2026-05-05 08:20 53.49030 -1.98178 3474 ft 206 kts 271°
2026-05-05 08:20 53.48490 -2.00338 3475 ft 203 kts 229°
2026-05-05 08:21 53.47535 -2.01993 3506 ft 197 kts 234°
2026-05-05 08:21 53.46727 -2.03872 3498 ft 195 kts 236°
2026-05-05 08:21 53.45873 -2.05661 3353 ft 202 kts 234°
2026-05-05 08:21 53.44980 -2.07521 3094 ft 203 kts 234°
2026-05-05 08:22 53.44116 -2.09327 2834 ft 196 kts 234°
2026-05-05 08:22 53.43301 -2.11024 2719 ft 180 kts 235°
2026-05-05 08:22 53.42522 -2.12645 2347 ft 177 kts 235°
2026-05-05 08:22 53.41774 -2.14202 2025 ft 167 kts 235°
2026-05-05 08:23 53.41069 -2.15664 1756 ft 159 kts 235°
2026-05-05 08:23 53.40374 -2.17136 1598 ft 162 kts 236°
2026-05-05 08:23 53.39659 -2.18645 1386 ft 170 kts 235°
2026-05-05 08:23 53.38899 -2.20181 1184 ft 172 kts 233°
2026-05-05 08:24 53.38156 -2.21696 894 ft 162 kts 233°
2026-05-05 08:24 53.37476 -2.23105 657 ft 148 kts 234°
2026-05-05 08:24 53.36865 -2.24383 459 ft 136 kts 233°
2026-05-05 08:24 53.36264 -2.25650 319 ft 141 kts 233°
2026-05-05 08:25 53.35672 -2.26878 218 ft 125 kts 232°
2026-05-05 08:25 53.35194 -2.27872 218 ft 87 kts 231°
2026-05-05 08:25 53.34995 -2.28324 218 ft 23 kts 243°
2026-05-05 08:25 53.34954 -2.28529 218 ft 17 kts 260°
2026-05-05 08:26 53.34942 -2.28674 218 ft 7 kts 272°
2026-05-05 08:26 53.34964 -2.28738 218 ft 5 kts 324°
2026-05-05 08:26 53.35011 -2.28745 218 ft 12 kts 27°
2026-05-05 08:26 53.35076 -2.28623 218 ft 13 kts 52°
2026-05-05 08:27 53.35131 -2.28508 218 ft 11 kts 51°
2026-05-05 08:27 53.35176 -2.28415 218 ft 9 kts 50°
2026-05-05 08:27 53.35226 -2.28313 218 ft 14 kts 51°
2026-05-05 08:27 53.35307 -2.28161 218 ft 18 kts 47°
2026-05-05 08:28 53.35383 -2.28040 218 ft 12 kts 43°
2026-05-05 08:28 53.35441 -2.27946 218 ft 13 kts 44°
2026-05-05 08:28 53.35506 -2.27840 218 ft 12 kts 45°
2026-05-05 08:28 53.35568 -2.27739 218 ft 10 kts 43°
2026-05-05 08:29 53.35600 -2.27688 218 ft 2 kts 44°
2026-05-05 08:29 53.35604 -2.27682 218 ft 0 kts 44°
2026-05-05 08:30 53.35605 -2.27679 218 ft 1 kts 43°
2026-05-05 08:30 53.35629 -2.27642 218 ft 8 kts 44°
2026-05-05 08:30 53.35673 -2.27559 218 ft 9 kts 51°
2026-05-05 08:30 53.35726 -2.27447 218 ft 12 kts 51°
2026-05-05 08:31 53.35772 -2.27357 218 ft 8 kts 52°
2026-05-05 08:31 53.35811 -2.27318 218 ft 8 kts
2026-05-05 08:31 53.35865 -2.27317 218 ft 5 kts 358°
2026-05-05 08:31 53.35892 -2.27318 218 ft 3 kts 359°
2026-05-05 08:32 53.35926 -2.27319 218 ft 5 kts 360°
2026-05-05 08:32 53.35965 -2.27322 218 ft 5 kts 341°
2026-05-05 08:32 53.35981 -2.27380 218 ft 5 kts 276°
2026-05-05 08:32 53.35982 -2.27395 218 ft 0 kts 277°
2026-05-05 08:33 53.35982 -2.27396 218 ft 0 kts 276°